Weather History for K1A6 - November, 2012

Change the Weather History Date:

Sunday, November 18, 2012

  Actual Average (KLOZ) Record (KLOZ)
Temperature  
Mean Temperature 46 °F 47 °F  
Max Temperature 64 °F 58 °F 76 °F (1958)
Min Temperature 28 °F 36 °F 13 °F (1959)
Degree Days  
Heating Degree Days 19 18  
Month to date heating degree days 279  
Since 1 July heating degree days 585  
Cooling Degree Days 0 0  
Month to date cooling degree days 0  
Moisture  
Dew Point 32 °F    
Average Humidity 71    
Maximum Humidity 100    
Minimum Humidity 32    
Precipitation  
Precipitation 0.00 in 0.14 in 2.28 in (1957)
Month to date precipitation 2.14  
Sea Level Pressure  
Sea Level Pressure 30.40 in    
Wind  
Wind Speed 1 mph (South)    
Max Wind Speed 6 mph    
Max Gust Speed -    
Visibility 10 miles    
Events      
T = Trace of Precipitation, MM = Missing Value Source: NWS Daily Summary

Daily Weather History Graph

Daily Weather History Graph

Search for Another Location

Airport or City:

Trip Planner

Search our weather history database for the weather conditions in past years. The results will help you decide how hot, cold, wet, or windy it might be!

Date:

Astronomy

Nov. 18, 2012 Rise Set
Actual Time 6:16 AM CST 4:23 PM CST
Civil Twilight 5:48 AM CST 4:51 PM CST
Nautical Twilight 5:17 AM CST 5:22 PM CST
Astronomical Twilight 4:46 AM CST 5:53 PM CST
Moon 10:44 AM CST (11/18) 9:40 PM CST (11/18)
Length of Visible Light 11h 03m
Length of Day
10h 07m
Waxing Crescent, 30% of the Moon is Illuminated
Nov 18
Waxing Crescent
Nov 20
First Quarter
Nov 28
Full
Dec 6
Last Quarter
Dec 13
New

Hourly Weather History & Observations

Time (CST) Temp. Windchill Dew Point Humidity Pressure Visibility Wind Dir Wind Speed Gust Speed Precip Events Conditions
12:15 AM 32.0 °F - 30.2 °F 93% 30.40 in 10.0 mi Calm Calm - N/A   Clear
12:35 AM 30.2 °F - 30.2 °F 100% 30.40 in 10.0 mi Calm Calm - N/A   Clear
12:55 AM 30.2 °F - 30.2 °F 100% 30.41 in 10.0 mi Calm Calm - N/A   Clear
1:15 AM 30.2 °F - 30.2 °F 100% 30.41 in 10.0 mi Calm Calm - N/A   Clear
1:35 AM 30.2 °F - 30.2 °F 100% 30.41 in 10.0 mi Calm Calm - N/A   Clear
1:55 AM 30.2 °F - 30.2 °F 100% 30.42 in 10.0 mi Calm Calm - N/A   Clear
2:15 AM 30.2 °F - 30.2 °F 100% 30.43 in 10.0 mi Calm Calm - N/A   Clear
2:35 AM 30.2 °F - 30.2 °F 100% 30.43 in 10.0 mi Calm Calm - N/A   Clear
2:55 AM 30.2 °F - 28.4 °F 93% 30.42 in 10.0 mi Calm Calm - N/A   Clear
3:15 AM 30.2 °F - 28.4 °F 93% 30.42 in 10.0 mi Calm Calm - N/A   Clear
3:35 AM 30.2 °F - 28.4 °F 93% 30.43 in 10.0 mi Calm Calm - N/A   Clear
3:55 AM 28.4 °F - 28.4 °F 100% 30.43 in 10.0 mi Calm Calm - N/A   Clear
4:15 AM 28.4 °F - 28.4 °F 100% 30.43 in 10.0 mi Calm Calm - N/A   Clear
4:35 AM 28.4 °F - 28.4 °F 100% 30.44 in 10.0 mi Calm Calm - N/A   Clear
4:55 AM 28.4 °F - 26.6 °F 93% 30.44 in 10.0 mi Calm Calm - N/A   Clear
5:15 AM 28.4 °F - 28.4 °F 100% 30.44 in 10.0 mi Calm Calm - N/A   Clear
5:35 AM 28.4 °F - 26.6 °F 93% 30.44 in 10.0 mi Calm Calm - N/A   Clear
5:55 AM 28.4 °F - 26.6 °F 93% 30.45 in 10.0 mi Calm Calm - N/A   Clear
6:15 AM 28.4 °F - 26.6 °F 93% 30.45 in 10.0 mi Calm Calm - N/A   Clear
6:35 AM 28.4 °F - 26.6 °F 93% 30.46 in 10.0 mi Calm Calm - N/A   Clear
6:55 AM 28.4 °F - 26.6 °F 93% 30.46 in 10.0 mi Calm Calm - N/A   Clear
7:15 AM 28.4 °F - 28.4 °F 100% 30.46 in 10.0 mi Calm Calm - N/A   Clear
7:35 AM 32.0 °F - 30.2 °F 93% 30.46 in 10.0 mi Calm Calm - N/A   Clear
7:55 AM 37.4 °F 34.9 °F 32.0 °F 81% 30.46 in 10.0 mi SSW 3.5 mph - N/A   Clear
8:15 AM 48.2 °F - 30.2 °F 50% 30.45 in 10.0 mi South 5.8 mph - N/A   Clear
8:35 AM 50.0 °F - 28.4 °F 43% 30.46 in 10.0 mi South 4.6 mph - N/A   Clear
8:55 AM 51.8 °F - 28.4 °F 41% 30.46 in 10.0 mi SE 3.5 mph - N/A   Clear
9:15 AM 53.6 °F - 30.2 °F 41% 30.45 in 10.0 mi South 4.6 mph - N/A   Clear
9:35 AM 53.6 °F - 30.2 °F 41% 30.45 in 10.0 mi South 5.8 mph - N/A   Clear
9:55 AM 55.4 °F - 30.2 °F 38% 30.45 in 10.0 mi South 5.8 mph - N/A   Clear
10:15 AM 55.4 °F - 30.2 °F 38% 30.43 in 10.0 mi SE 3.5 mph - N/A   Clear
10:35 AM 57.2 °F - 32.0 °F 38% 30.41 in 10.0 mi Calm Calm - N/A   Clear
10:55 AM 57.2 °F - 32.0 °F 38% 30.41 in 10.0 mi Calm Calm - N/A   Clear
11:15 AM 59.0 °F - 32.0 °F 36% 30.40 in 10.0 mi Calm Calm - N/A   Clear
11:35 AM 60.8 °F - 33.8 °F 36% 30.39 in 10.0 mi Calm Calm - N/A   Clear
11:55 AM 60.8 °F - 33.8 °F 36% 30.38 in 10.0 mi Calm Calm - N/A   Clear
12:15 PM 60.8 °F - 32.0 °F 34% 30.37 in 10.0 mi Calm Calm - N/A   Clear
12:35 PM 62.6 °F - 32.0 °F 32% 30.36 in 10.0 mi Calm Calm - N/A   Clear
12:55 PM 62.6 °F - 32.0 °F 32% 30.35 in 10.0 mi Calm Calm - N/A   Clear
1:15 PM 62.6 °F - 32.0 °F 32% 30.35 in 10.0 mi Calm Calm - N/A   Clear
1:35 PM 64.4 °F - 33.8 °F 32% 30.35 in 10.0 mi Calm Calm - N/A   Clear
1:55 PM 64.4 °F - 33.8 °F 32% 30.34 in 10.0 mi Calm Calm - N/A   Clear
2:15 PM 64.4 °F - 35.6 °F 34% 30.34 in 10.0 mi ESE 3.5 mph - N/A   Clear
2:35 PM 64.4 °F - 35.6 °F 34% 30.34 in 10.0 mi SSE 3.5 mph - N/A   Clear
2:55 PM 64.4 °F - 37.4 °F 37% 30.34 in 10.0 mi SSE 3.5 mph - N/A   Clear
3:15 PM 62.6 °F - 37.4 °F 39% 30.34 in 10.0 mi South 3.5 mph - N/A   Clear
3:35 PM 62.6 °F - 35.6 °F 37% 30.34 in 10.0 mi Calm Calm - N/A   Clear
3:55 PM 60.8 °F - 35.6 °F 39% 30.35 in 10.0 mi Calm Calm - N/A   Clear
4:15 PM 53.6 °F - 39.2 °F 58% 30.35 in 10.0 mi Calm Calm - N/A   Clear
4:35 PM 51.8 °F - 37.4 °F 58% 30.35 in 10.0 mi Calm Calm - N/A   Clear
4:55 PM 50.0 °F - 37.4 °F 62% 30.36 in 10.0 mi WNW 4.6 mph - N/A   Clear
5:15 PM 48.2 °F - 35.6 °F 62% 30.36 in 10.0 mi Calm Calm - N/A   Clear
5:35 PM 48.2 °F - 35.6 °F 62% 30.36 in 10.0 mi Calm Calm - N/A   Clear
5:55 PM 46.4 °F - 35.6 °F 66% 30.36 in 10.0 mi Calm Calm - N/A   Clear
6:15 PM 44.6 °F 43.1 °F 35.6 °F 71% 30.37 in 10.0 mi West 3.5 mph - N/A   Clear
6:35 PM 42.8 °F - 35.6 °F 76% 30.38 in 10.0 mi Calm Calm - N/A   Clear
6:55 PM 42.8 °F - 35.6 °F 76% 30.38 in 10.0 mi Calm Calm - N/A   Clear
7:15 PM 41.0 °F - 35.6 °F 81% 30.38 in 10.0 mi Calm Calm - N/A   Clear
7:35 PM 39.2 °F - 35.6 °F 87% 30.37 in 10.0 mi Calm Calm - N/A   Clear
7:55 PM 37.4 °F - 35.6 °F 93% 30.37 in 10.0 mi Calm Calm - N/A   Clear
8:15 PM 37.4 °F - 33.8 °F 87% 30.38 in 10.0 mi Calm Calm - N/A   Clear
8:35 PM 37.4 °F - 33.8 °F 87% 30.38 in 10.0 mi Calm Calm - N/A   Clear
8:55 PM 37.4 °F - 33.8 °F 87% 30.37 in 10.0 mi Calm Calm - N/A   Clear
9:15 PM 35.6 °F - 33.8 °F 93% 30.37 in 10.0 mi Calm Calm - N/A   Clear
9:35 PM 35.6 °F - 33.8 °F 93% 30.37 in 10.0 mi Calm Calm - N/A   Clear
9:55 PM 35.6 °F - 33.8 °F 93% 30.37 in 10.0 mi Calm Calm - N/A   Clear
10:35 PM 35.6 °F - 33.8 °F 93% 30.38 in 7.0 mi Calm Calm - N/A   Clear
11:15 PM 33.8 °F - 33.8 °F 100% 30.37 in 7.0 mi Calm Calm - N/A   Clear
11:35 PM 33.8 °F - 33.8 °F 100% 30.37 in 10.0 mi Calm Calm - N/A   Clear
11:55 PM 33.8 °F - 33.8 °F 100% 30.37 in 10.0 mi Calm Calm - N/A   Clear